MPEC 2023-F212 : 2023 FK7
The following Minor Planet Electronic Circular may be linked-to from your own Web pages, but must not otherwise be redistributed electronically.A form allowing access to any MPEC is at the bottom of this page.


M.P.E.C. 2023-F212 Issued 2023 March 29, 11:01 UT The Minor Planet Electronic Circulars contain information on unusual minor planets, routine data on comets and natural satellites, and occasional editorial announcements. They are published on behalf of Division F of the International Astronomical Union by the Minor Planet Center, Smithsonian Astrophysical Observatory, Cambridge, MA 02138, U.S.A. Prepared using the Tamkin Foundation Computer Network MPC@CFA.HARVARD.EDU URL https://www.minorplanetcenter.net/ ISSN 1523-6714 2023 FK7 Observations: K23F07K C2023 03 28.30805211 45 04.149+30 31 18.11 VEF212F51 K23F07K* C2023 03 28.31985911 45 20.069+30 29 36.87 19.83wUEF212F51 K23F07K C2023 03 28.33141311 45 35.589+30 27 56.87 20.28GVEF212F51 K23F07K C2023 03 28.34300611 45 51.033+30 26 17.06 20.23wUEF212F51 K23F07K C2023 03 28.52578111 49 48.583+29 59 09.03 20.03GVEF212F51 K23F07K C2023 03 28.52642111 49 49.416+29 59 03.24 19.99GVEF212F51 K23F07K C2023 03 28.52706011 49 50.224+29 58 57.44 20.01GVEF212F51 K23F07K C2023 03 28.52770111 49 51.047+29 58 51.61 20.00GVEF212F51 K23F07K KC2023 03 28.81913811 56 27.67 +29 15 32.9 20.0 GUEF212L06 K23F07K KC2023 03 28.82360111 56 33.12 +29 14 55.8 20.3 GUEF212L06 K23F07K KC2023 03 28.96753711 59 22.10 +28 55 02.2 20.5 GVEF212L01 K23F07K KC2023 03 28.96902311 59 23.81 +28 54 49.5 20.2 GVEF212L01 K23F07K KC2023 03 28.97051011 59 25.53 +28 54 37.0 20.0 GVEF212L01 K23F07K KC2023 03 28.97199911 59 27.26 +28 54 24.5 20.3 GVEF212L01 K23F07K KC2023 03 28.97348911 59 28.97 +28 54 11.9 20.4 GVEF212L01 K23F07K KC2023 03 29.16431012 03 21.13 +28 28 02.7 19.8 VuEF212H21 K23F07K KC2023 03 29.16623912 03 23.26 +28 27 47.0 20.1 VuEF212H21 K23F07K KC2023 03 29.16760912 03 28.01 +28 27 37.3 19.8 GXEF212858 K23F07K KC2023 03 29.16816812 03 25.38 +28 27 31.5 19.8 VuEF212H21 K23F07K KC2023 03 29.17009812 03 27.50 +28 27 15.8 19.8 VuEF212H21 K23F07K KC2023 03 29.17209112 03 29.67 +28 26 59.9 19.7 VuEF212H21 K23F07K KC2023 03 29.17300812 03 33.97 +28 26 54.7 19.9 GXEF212858 K23F07K KC2023 03 29.18053812 03 42.24 +28 25 55.1 20.6 GXEF212858 K23F07K KC2023 03 29.19807112 04 02.348+28 23 40.74 20.35GVEF212I52 K23F07K KC2023 03 29.19957112 04 03.990+28 23 28.61 20.31GVEF212I52 K23F07K KC2023 03 29.20106512 04 05.617+28 23 16.84 20.38GVEF212I52 K23F07K KC2023 03 29.20256512 04 07.244+28 23 04.92 20.15GVEF212I52 K23F07K KC2023 03 29.20615 12 04 08.14 +28 22 24.3 20.4 VqEF212734 K23F07K KC2023 03 29.20930 12 04 11.57 +28 21 59.4 20.6 VqEF212734 K23F07K KC2023 03 29.21522 12 04 18.03 +28 21 11.8 20.8 VqEF212734 K23F07K KC2023 03 29.21811 12 04 21.10 +28 20 48.5 19.6 VqEF212734 Observer details: 734 Farpoint Observatory, Eskridge. Observers D. Cromer, G. Hug, D. Goodin, R. Valentine. Measurer D. Cromer. 0.70-m f/3.0 reflector + CCD. 858 Tebbutt Observatory, Edgewood. Observer F. B. Zoltowski. 0.51-m f/8.1 Schmidt-Cassegrain + CCD. F51 Pan-STARRS 1, Haleakala. Observers J. Bulger, K. Chambers, T. Lowe, A. Schultz, I. Smith. Measurers S. Chastel, J. Fairlamb, M. Huber, Y. Ramanjooloo, R. Wainscoat, R. Weryk, K. Chambers, T. de Boer, H. Gao, C.-C. Lin, E. Magnier. 1.8-m Ritchey-Chretien + CCD. H21 Astronomical Research Observatory, Westfield. Observer R. Holmes. Measurers T. Linder, R. Holmes, L. Horn. 0.76-m f/3.0 astrograph + CCD. I52 Steward Observatory, Mt. Lemmon Station. Observer J. B. Fazekas. Measurers E. J. Christensen, D. Fay, J. B. Fazekas, D. C. Fuls, A. R. Gibbs, A. D. Grauer, H. Groeller, J. K. Hogan, R. A. Kowalski, S. M. Larson, G. J. Leonard, D. Rankin, R. L. Seaman, A. Serrano, F. C. Shelly, K. W. Wierzchos. 1.0-m prime focus + CCD. L01 Visnjan Observatory, Tican. Observers K. Korlevic. Measurer K. Korlevic. 1.0-m f/2.9 reflector + CCD. L06 Sormano 2 Observatory, Bellagio Via Lattea. Observers E. Valli, G. Ventre. Measurer P. Sicoli. 0.36m Schmidt Cassegrain + CCD. Orbital elements: 2023 FK7 Earth MOID = 0.0032 AU Epoch 2023 Feb. 25.0 TT = JDT 2460000.5 Veres M 1.24342 (2000.0) P Q n 0.34475825 Peri. 327.40616 -0.78950381 -0.61368175 a 2.0143098 Node 174.71156 +0.58168440 -0.75278636 e 0.5367562 Incl. 5.51416 +0.19577281 -0.23813317 P 2.86 H 25.52 G 0.15 U 8 Residuals in seconds of arc 230328 F51 0.0 0.1- 230328 L01 0.1- 0.1- 230329 858 0.1- 0.1- 230328 F51 0.1- 0.1+ 230328 L01 0.1- 0.1- 230329 I52 0.1- 0.0 230328 F51 0.3+ 0.3- 230328 L01 0.1+ 0.0 230329 I52 0.0 0.2- 230328 F51 0.0 0.1+ 230328 L01 0.0 0.0 230329 I52 0.0 0.2- 230328 F51 0.0 0.1- 230329 H21 0.0 0.0 230329 I52 0.0 0.2- 230328 F51 0.1+ 0.0 230329 H21 0.2+ 0.2- 230329 734 0.4- 0.2- 230328 F51 0.1- 0.0 230329 858 0.1- 0.4- 230329 734 0.2- 0.3+ 230328 F51 0.1- 0.0 230329 H21 0.2+ 0.2- 230329 734 0.6+ 0.4+ 230328 L06 0.2+ 0.6+ 230329 H21 0.3+ 0.3- 230329 734 0.0 0.4+ 230328 L06 0.5+ 0.2+ 230329 H21 0.2+ 0.2- 230328 L01 0.1- 0.1+ 230329 858 0.0 0.2- Ephemeris: 2023 FK7 a,e,i = 2.01, 0.54, 6 q = 0.9331 Date TT R. A. (2000) Decl. Delta r Elong. Phase V 2023 02 27 02 54 35.1 +01 18 46 0.1500 0.9360 64.7 107.0 25.2 ... 2023 03 14 03 56 43.3 +12 27 23 0.06460 0.9706 67.1 109.4 23.6 ... 2023 03 22 07 02 13.0 +35 36 18 0.03259 1.0034 101.8 76.3 20.8 ... 2023 03 28 11 37 18.6 +31 17 26 0.04334 1.0333 144.2 34.4 20.2 2023 03 29 12 00 01.8 +28 51 30 0.04780 1.0387 147.4 31.2 20.3 2023 03 30 12 17 55.9 +26 39 54 0.05264 1.0442 149.7 28.9 20.5 ... 2023 04 05 13 13 33.7 +18 04 58 0.08612 1.0792 155.7 22.5 21.4 ... 2023 04 13 13 39 07.9 +12 44 47 0.1366 1.1304 158.1 19.3 22.4 ... 2023 04 28 13 54 48.3 +07 41 03 0.2447 1.2363 157.6 18.1 23.9 M. P. C. Staff (C) Copyright 2023 MPC M.P.E.C. 2023-F212


Enter an MPEC number in one of the following forms:
- 1997-B01 (the full form)
- J97B01 (the packed version of the full form)
- B01 (the abbreviated form)